SCP
0 0 0 0 0 0 0 0 0 0 0 0 0 0 0 0 0 0 0 0 0 0 0 0 0 0 0 0 0 0 0 0 0 0 0 0 0 0
0 0 0 0 0 0 0 0 0 0 0 0 0 0 0 0 0 0 0 0 0 0 0 0 0 0 0 0 0 0 0 0 0 0 0 0 0 0
0 0 0 0 0 0 0 0 0 0 0 0 0 0 0 0 0 0 0 0 0 0 0 0 0 0 0 0 0 0 0 0 0 0 0 0 0 0
0 0 0 0 0 0 0 0 0 0 0 0 0 0 0 0 0 0 0 0 0 0 0 0 0 0 0 0 0 0 0 0 0 0 0 0 0 0
0 0 0 0 0 0 0 0 0 0 0 0 0 0 0 0 0 0 0 0 0 0 0 0 0 0 0 0 0 0 0 0 0 0 0 0 0 0
0 0 0 0 0 0 0 0 0 0 0 0 0 0 0 0 0 0 0 0 0 0 0 0 0 0 0 0 0 0 0 0 0 0 0 0 0 0
0 0 0 0 0 0 0 0 0 0 0 0 0 0 0 0 0 0 0 0 0 0 0 0 0 0 0 0 0 0 0 0 0 0 0 0 0 0
0 0 0 0 0 0 0 0 0 0 0 0 0 0 0 0 0 0 0 0 0 0 0 0 0 0 0 0 0 0 0 0 0 0 0 0 0 0
0 0 0 0 0 0 0 0 0 0 0 0 0 0 0 0 0 0 0 0 0 0 0 0 0 0 0 0 0 0 0 0 0 0 0 0 0 0
0 0 0 0 0 0 0 0 0 0 0 0 0 0 0 0 0 0 0 0 0 0 0 0 0 0 0 0 0 0 0 0 0 0 0 0 0 0
0 0 0 0 0 0 0 0 0 0 0 0 0 0 0 0 0 0 0 0 0 0 0 0 0 0 0 0 0 0 0 0 0 0 0 0 0 0
0 0 0 0 0 0 0 0 0 0 0 0 0 0 0 0 0 0 0 0 0 0 0 0 0 0 0 0 0 0 0 0 0 0 0 0 0 0
0 0 0 0 0 0 0 0 0 0 0 0 0 0 0 0 0 0 0 0 0 0 0 0 0 0 0 0 0 0 0 0 0 0 0 0 0 0
0 0 0 0 0 0 0 0 0 0 0 0 0 0 0 0 0 0 0 0 0 0 0 0 0 0 0 0 0 0 0 0 0 0 0 0 0 0
0 0 0 0 0 0 0 0 0 0 0 0 0 0 0 0 0 0 0 0 0 0 0 0 0 0 0 0 0 0 0 0 0 0 0 0 0 0
0 0 0 0 0 0 0 0 0 0 0 0 0 0 0 0 0 0 0 0 0 0 0 0 0 0 0 0 0 0 0 0 0 0 0 0 0 0
0 0 0 0 0 0 0 0 0 0 0 0 0 0 0 0 0 0 0 0 0 0 0 0 0 0 0 0 0 0 0 0 0 0 0 0 0 0
0 0 0 0 0 0 0 0 0 0 0 0 0 0 0 0 0 0 0 0 0 0 0 0 0 0 0 0 0 0 0 0 0 0 0 0 0 0
0 0 0 0 0 0 0 0 0 0 0 0 0 0 0 0 0 0 0 0 0 0 0 0 0 0 0 0 0 0 0 0 0 0 0 0 0 0
0 0 0 0 0 0 0 0 0 0 0 0 0 0 0 0 0 0 0 0 0 0 0 0 0 0 0 0 0 0 0 0 0 0 0 0 0 0
0 0 0 0 0 0 0 0 0 0 0 0 0 0 0 0 0 0 0 0 0 0 0 0 0 0 0 0 0 0 0 0 0 0 0 0 0 0
0 0 0 0 0 0 0 0 0 0 0 0 0 0 0 0 0 0 0 0 0 0 0 0 0 0 0 0 0 0 0 0 0 0 0 0 0 0
0 0 0 0 0 0 0 0 0 0 0 0 0 0 0 0 0 0 0 0 0 0 0 0 0 0 0 0 0 0 0 0 0 0 0 0 0 0
Wind_Speed
2 2 2 2 2 3 3 4 4 6 6 5 4 5 6 6 9 10 10 13 15 16 17 17 17 17 17 17 17 17 18 18 18 19 19 20 20 20
2 2 2 2 2 2 3 3 4 6 6 5 6 7 7 7 10 10 10 14 14 15 16 17 17 17 17 17 17 17 17 18 18 18 19 19 20 20
2 2 3 3 3 3 3 3 4 5 8 7 6 7 9 9 9 8 9 9 8 13 16 16 16 17 17 16 16 16 17 17 18 18 19 19 20 20
3 3 3 3 4 3 3 4 5 5 7 9 8 7 9 9 10 10 9 8 8 12 15 16 16 16 16 16 16 16 16 17 17 18 18 19 19 19
3 3 3 4 4 3 4 5 5 5 6 7 8 7 7 7 9 9 10 8 8 10 13 13 14 15 15 15 16 16 16 16 17 17 18 18 18 18
3 3 4 4 5 5 5 5 5 6 6 7 7 7 7 7 7 8 8 8 8 8 9 10 12 14 14 15 15 15 15 16 16 17 17 17 17 17
3 3 4 5 6 5 5 5 6 5 5 6 6 6 6 7 7 7 8 9 9 7 8 8 8 8 9 11 12 14 15 16 16 17 17 17 16 16
3 3 3 4 6 7 8 8 8 7 6 6 6 7 8 8 7 7 8 8 7 6 9 9 7 8 7 7 12 15 15 16 16 16 16 16 16 16
3 3 3 4 5 5 7 8 7 8 8 7 8 8 9 8 8 9 8 9 9 8 8 8 7 8 8 8 14 15 15 16 16 16 16 16 16 15
3 3 4 4 4 6 6 6 6 6 7 6 7 8 8 8 7 8 9 9 9 6 6 7 8 8 9 8 11 14 15 16 16 15 15 15 15 15
2 3 3 4 5 7 6 6 7 6 6 8 10 9 10 10 8 5 6 6 7 6 4 5 7 9 8 7 8 12 14 15 15 15 14 15 15 14
2 3 3 4 5 6 5 6 6 7 7 7 7 7 6 6 7 6 5 6 6 5 4 5 6 7 7 5 6 8 9 12 15 14 14 14 14 9
2 2 3 5 6 6 6 5 7 8 6 6 6 6 5 5 5 5 5 5 5 5 5 5 6 6 6 8 7 8 8 8 9 10 11 13 14 10
2 2 3 5 6 6 5 6 7 6 4 4 5 5 5 5 5 6 6 6 6 7 7 6 5 6 7 8 8 8 8 8 8 8 7 10 11 12
2 4 4 4 4 4 5 6 5 3 3 4 5 5 5 6 6 5 6 6 6 6 5 6 6 6 6 7 7 8 8 8 7 7 8 7 7 7
2 3 3 3 3 4 4 3 3 3 4 4 5 5 5 5 5 5 5 6 5 5 5 6 6 6 6 7 7 8 7 6 7 8 8 7 7 6
3 2 2 2 2 3 3 3 3 4 4 4 4 5 5 5 5 5 5 5 5 6 6 6 5 5 6 6 6 6 7 7 7 8 7 7 7 7
2 2 2 2 2 3 3 3 3 4 4 4 5 5 5 5 5 5 5 5 5 6 6 6 7 6 4 3 3 5 6 6 7 7 7 6 7 7
1 1 2 2 2 3 3 3 4 4 4 4 4 5 5 5 5 5 6 5 6 5 5 5 5 5 6 7 5 4 6 7 7 6 6 6 6 7
2 2 2 2 3 3 3 3 4 4 4 4 5 5 5 5 5 5 5 6 6 6 6 5 5 5 5 6 6 6 7 6 6 6 7 6 5 6
2 2 2 2 3 3 3 3 3 4 4 4 4 5 5 5 5 5 5 7 6 5 6 6 6 8 5 4 4 5 5 6 6 5 7 6 6 6
2 2 2 3 3 3 3 3 3 3 4 4 4 4 4 5 5 6 6 5 5 5 6 5 6 5 4 4 5 6 7 7 6 6 6 6 4 5
2 3 3 3 3 3 3 3 4 4 4 4 4 4 5 5 5 5 5 5 5 5 5 5 5 4 4 4 5 5 7 8 6 6 6 8 8 7
Wind_Direction
232 247 257 264 269 273 279 284 291 296 299 303 308 310 312 309 312 308 311 318 316 317 319 320 321 322 320 319 320 320 320 320 320 319 318 317 316 316
229 244 264 266 271 274 273 277 278 282 287 297 299 306 309 305 309 310 311 314 311 316 320 320 321 323 322 320 320 320 320 320 319 318 317 317 316 316
232 243 259 276 278 274 277 276 275 279 282 291 296 305 307 307 311 311 311 311 311 316 319 319 320 322 323 322 322 321 321 320 319 319 318 317 316 316
238 252 265 271 275 282 280 276 276 277 283 292 299 306 307 310 313 312 312 311 310 314 316 316 319 323 323 323 323 322 322 321 320 320 319 319 318 318
239 253 266 272 275 281 287 284 281 282 283 287 297 306 308 314 314 311 312 313 312 312 313 314 317 321 322 322 322 322 320 319 319 320 321 322 321 320
248 257 263 269 278 285 284 289 292 291 289 289 295 304 308 316 315 316 316 317 314 313 315 316 317 317 319 321 322 322 321 320 320 321 321 322 321 320
258 263 269 283 291 292 292 293 295 291 292 295 297 303 309 317 317 317 312 315 313 315 319 319 318 315 318 319 323 325 322 321 321 321 321 322 321 319
260 270 278 277 286 290 294 297 297 295 297 295 295 298 303 310 313 311 312 317 314 323 319 314 316 313 316 316 326 328 326 324 322 320 321 323 322 321
262 274 284 288 289 291 293 292 291 293 295 296 292 294 301 307 308 308 308 308 303 312 314 304 313 311 314 315 324 326 327 327 327 324 323 323 323 322
271 279 284 292 296 304 301 300 299 297 296 292 292 297 301 303 299 299 302 302 299 304 314 301 311 311 314 311 321 327 328 328 327 327 327 329 328 324
292 288 290 295 312 318 310 304 304 309 306 300 300 299 302 304 307 305 308 312 311 312 323 305 311 313 307 305 318 327 327 328 330 330 330 333 332 326
298 296 297 312 319 319 312 309 308 314 316 314 310 306 304 304 309 305 306 309 313 308 326 317 313 321 312 309 323 328 326 329 333 334 335 335 337 332
299 301 308 322 324 321 320 313 316 319 313 312 311 313 317 317 320 318 312 300 297 292 307 312 307 311 302 306 314 323 328 330 333 334 337 339 339 339
294 302 313 325 325 322 321 327 329 326 317 315 314 316 319 321 322 319 312 301 291 290 298 304 298 305 307 307 310 318 326 330 332 333 335 337 337 338
308 314 317 322 321 321 334 335 332 330 324 319 317 317 319 319 320 320 318 314 305 299 299 301 298 299 299 301 307 314 319 325 333 335 336 340 339 339
331 329 331 338 333 334 335 335 335 331 324 319 318 319 322 325 326 326 322 326 322 321 321 315 307 306 302 302 305 313 323 325 331 337 338 339 341 342
328 318 323 329 334 339 337 337 337 333 330 330 325 322 324 327 328 328 324 323 322 324 329 331 322 312 305 304 306 318 325 329 333 339 339 342 346 349
322 306 315 324 327 328 326 328 328 326 326 325 322 322 323 326 327 328 329 327 325 324 328 331 332 330 326 327 323 320 327 330 335 339 341 343 346 350
311 300 303 311 317 316 317 318 319 322 321 320 321 324 324 324 324 326 330 329 326 326 328 330 334 338 340 339 339 351 335 332 334 341 346 344 341 342
312 305 306 311 312 311 314 316 317 321 322 322 322 321 323 323 323 325 327 328 325 326 330 334 339 337 329 320 317 324 337 334 334 339 340 340 340 335
310 308 308 310 308 307 309 312 312 313 317 317 316 319 322 323 323 324 324 327 326 327 329 330 326 323 311 306 315 330 342 349 344 336 336 336 342 352
314 309 310 310 306 304 306 309 310 312 316 315 315 318 320 321 320 322 324 325 326 325 325 323 327 333 340 340 338 336 341 345 350 357 5 4 351 352
314 311 309 306 304 304 304 306 309 307 309 310 312 316 318 319 319 318 320 324 326 327 329 330 334 339 340 336 339 342 345 347 349 358 8 7 5 356